Wind_Speed
33 34 36 37 37 38 38 38 38 38 39 40 42 44 45 48 50 53 57 61 66 69 70 69 68 65 63 62 61 60 60 59 58 57 58 59 60 61 61 61 59 58 56 56 55 54 54 54 54 55 55 55 54 51 49 48 48 49 49 48 48 48 50 51 52 53 53 53 53 51 50 48 47 46 46 47 48 49 49 49 49 49 48 47 46 44
30 31 33 35 37 38 39 40 40 40 40 41 43 44 45 46 47 50 53 57 62 66 69 71 71 69 66 64 62 61 61 60 59 59 59 60 61 62 62 61 61 61 61 60 59 57 57 55 55 55 55 55 54 52 50 50 50 50 50 49 49 49 51 52 53 54 54 55 56 55 54 52 50 49 49 49 50 50 50 51 51 51 50 48 46 45
31 31 31 32 34 35 37 39 40 41 41 41 43 44 45 46 47 48 50 53 57 61 65 69 72 72 70 67 64 63 62 61 60 60 60 60 61 61 61 60 61 62 62 63 62 61 60 58 56 55 55 54 54 53 52 51 51 51 51 50 50 51 52 53 54 54 54 56 58 60 59 57 55 54 53 53 53 53 52 52 52 52 52 50 47 45
33 33 32 32 32 33 34 35 37 39 40 40 41 42 44 45 46 47 48 50 53 57 61 65 69 72 73 71 68 65 64 63 62 61 61 61 61 61 61 60 59 59 60 62 63 63 62 60 59 57 57 56 55 54 53 53 52 52 52 52 52 54 55 55 54 53 54 56 59 62 62 62 60 59 58 58 58 57 56 54 54 54 54 51 48 46
35 35 34 34 33 33 32 33 33 35 36 37 39 40 41 43 45 46 48 49 51 53 57 62 66 70 73 73 72 69 66 65 64 63 62 62 62 62 62 62 60 60 59 60 62 64 65 63 61 60 58 57 56 54 54 53 53 53 53 54 55 57 57 55 53 52 53 56 59 61 62 62 62 62 63 63 63 62 60 58 57 56 55 52 49 47
36 36 36 36 35 35 34 33 32 32 33 34 35 36 37 39 41 43 46 48 50 52 56 60 63 67 70 72 73 72 69 67 66 65 64 63 63 64 65 65 63 62 61 61 62 65 66 65 64 62 60 58 57 55 54 54 54 55 55 56 58 58 56 53 51 50 52 55 58 60 61 61 62 63 65 67 67 66 64 62 60 58 55 52 48 47
36 37 37 37 37 37 36 35 34 33 33 32 32 33 34 35 37 38 41 44 47 50 54 58 62 64 67 70 72 73 72 70 68 67 66 65 65 66 67 68 67 65 63 63 64 65 66 66 66 64 63 61 59 57 56 55 55 55 56 58 59 57 54 51 49 49 50 53 56 59 60 61 62 64 67 69 70 69 67 65 63 59 55 50 47 46
38 37 38 38 38 38 38 37 37 36 35 34 33 32 33 33 34 35 36 38 40 44 48 52 57 61 65 68 71 73 74 73 71 69 67 65 65 67 68 69 69 68 67 66 66 67 67 68 68 68 67 66 65 62 60 58 56 56 56 58 57 55 52 50 49 49 49 51 54 58 60 62 63 64 67 69 71 71 70 68 64 60 54 49 46 45
39 39 39 39 39 39 39 39 38 38 37 37 36 35 34 33 33 34 34 35 36 37 39 43 47 52 57 63 67 71 73 74 73 71 68 65 64 64 65 66 68 68 69 70 70 71 72 72 72 72 72 72 71 69 66 63 60 58 57 57 55 53 52 51 51 51 51 52 54 57 60 62 63 64 66 69 71 72 72 70 67 62 55 49 46 45
41 41 40 40 40 40 39 39 39 39 39 39 38 37 36 35 34 34 34 34 35 35 35 36 38 41 45 49 54 59 64 67 70 70 68 66 64 63 63 63 64 65 68 70 73 75 77 78 78 76 74 73 72 71 70 69 66 62 59 57 56 54 53 53 52 53 53 54 56 58 61 62 64 65 66 69 71 73 74 74 71 67 60 53 49 47
42 42 42 41 41 41 41 40 40 40 40 40 39 39 38 37 36 35 35 35 34 34 34 34 34 35 36 37 40 43 48 52 55 58 61 62 63 63 62 61 61 63 65 69 72 76 78 78 77 74 71 69 68 68 69 69 69 67 63 61 58 57 55 54 54 55 56 57 58 60 62 63 64 66 67 69 72 74 76 77 75 72 66 59 54 51
42 43 43 43 42 42 42 42 41 41 41 41 40 40 39 39 38 37 37 36 35 35 35 35 35 34 34 34 34 35 37 39 42 45 49 52 56 58 60 60 61 61 63 65 67 70 71 70 69 67 66 64 63 63 64 66 67 68 66 64 62 60 59 58 57 58 59 60 61 62 63 64 66 67 69 71 73 75 77 78 78 75 71 65 59 57
42 43 43 43 43 43 43 42 42 41 41 41 41 41 41 40 40 39 39 38 37 36 36 36 36 36 36 35 34 34 35 36 37 39 41 43 47 50 53 56 58 60 61 61 62 63 63 63 63 63 63 63 63 63 63 63 65 66 67 66 65 64 63 62 62 62 63 63 63 63 64 65 67 69 71 72 74 75 77 78 78 76 73 68 64 62
43 43 43 44 44 44 44 43 42 42 42 42 42 42 42 42 41 41 41 40 40 39 38 38 37 37 37 37 36 36 36 36 36 37 38 39 41 44 47 50 53 56 58 59 60 60 60 61 61 62 63 64 64 64 63 63 64 65 66 66 66 65 64 64 64 64 64 63 63 62 62 64 65 67 69 70 72 74 76 77 77 76 73 70 67 66
44 44 43 44 44 44 44 44 44 43 43 43 43 43 43 43 43 43 43 42 42 41 40 40 40 40 39 38 38 38 37 37 37 37 37 38 39 40 42 44 47 50 53 56 59 60 60 60 61 61 62 63 64 63 63 63 63 64 65 65 64 63 62 62 62 62 62 61 60 59 59 59 60 60 61 64 68 73 76 76 75 73 71 69 68 67
46 45 44 44 44 44 44 44 45 45 44 44 43 43 44 44 45 45 45 45 44 44 43 43 43 42 41 41 40 39 39 39 39 38 38 38 38 39 39 41 43 45 48 51 54 57 59 60 61 61 61 62 62 62 62 62 62 62 62 62 61 60 59 59 59 58 58 57 56 55 54 53 52 51 53 58 66 71 74 72 70 68 67 66 65 64
47 46 46 46 45 45 44 44 45 45 45 45 44 44 44 45 45 46 46 47 47 46 46 45 45 44 43 43 42 41 41 41 40 40 39 39 39 39 39 39 40 42 43 45 48 51 55 58 59 60 61 61 60 60 60 60 60 60 60 59 59 58 57 57 57 56 55 53 52 51 50 48 47 47 50 56 63 67 68 66 64 62 61 61 60 59
48 47 47 47 46 46 45 44 45 45 46 46 46 45 45 45 46 46 47 48 48 48 48 48 47 47 46 45 44 43 42 42 42 42 41 41 40 40 39 39 40 40 40 41 43 45 49 52 55 58 59 59 59 59 59 59 59 59 58 58 57 57 57 57 56 56 54 53 51 50 49 47 47 48 51 55 59 61 61 60 58 57 56 55 55 55
49 48 48 47 47 47 46 45 45 45 46 46 47 47 46 46 46 46 47 48 48 49 49 49 49 49 48 47 46 45 43 43 43 43 43 42 42 41 40 40 40 40 39 39 40 41 43 46 49 52 55 56 57 58 59 59 59 58 58 57 57 57 57 58 58 57 56 55 54 53 53 52 51 51 53 55 56 57 57 57 55 54 53 54 54 55
51 50 48 48 48 47 47 46 46 46 46 47 47 48 47 48 47 47 47 47 48 49 49 50 50 50 50 49 49 47 46 45 45 44 44 44 43 42 41 41 41 40 40 39 39 39 40 42 44 47 50 52 54 56 58 59 59 59 58 57 57 57 58 59 59 58 57 56 55 55 56 55 55 55 55 55 56 57 57 57 56 55 55 55 55 56
53 52 50 48 47 47 47 47 47 46 46 47 47 48 48 49 48 48 47 47 48 48 49 49 50 51 50 50 50 49 48 47 46 46 46 45 44 43 42 42 41 41 40 39 39 39 39 40 42 44 46 48 50 52 55 57 58 59 58 57 57 57 58 58 59 58 57 56 55 54 55 55 55 54 54 55 55 56 56 56 56 55 55 55 55 56
55 54 52 49 48 47 47 48 47 47 47 47 47 48 49 49 49 48 48 48 48 48 49 49 50 50 50 51 51 50 49 48 48 47 47 45 44 44 43 42 41 41 40 40 39 39 38 39 40 41 43 45 47 50 51 53 55 57 57 56 56 55 55 55 55 55 54 53 52 52 51 51 51 51 51 52 52 53 53 54 54 54 54 54 54 54
57 56 54 51 49 48 48 48 47 47 47 47 48 49 50 50 49 49 49 49 49 49 49 49 50 50 50 50 51 50 49 49 49 49 47 46 46 45 43 42 41 41 41 40 40 39 39 39 40 40 41 43 45 47 49 51 52 53 54 54 53 52 51 51 51 51 50 50 50 49 49 49 49 49 49 50 51 52 52 53 53 53 53 53 53 53
57 56 55 53 51 49 48 48 48 48 48 48 49 49 50 50 50 51 51 51 50 50 50 50 50 50 50 51 50 50 49 49 49 49 48 48 48 46 44 42 42 42 42 41 40 39 39 40 40 40 40 41 43 44 46 48 50 51 51 51 50 50 49 48 48 47 47 47 47 48 48 48 48 48 49 50 51 52 52 53 53 53 53 52 52 51
56 56 55 54 52 50 49 48 48 48 48 48 49 49 50 50 50 51 52 52 51 51 51 51 50 50 50 50 50 49 49 49 49 48 49 49 49 47 45 44 43 42 42 42 41 40 40 40 40 40 40 40 41 42 43 45 47 48 49 49 49 49 48 47 47 46 46 46 46 47 47 48 48 49 50 51 52 53 53 53 53 53 52 52 51 51
55 55 54 53 52 50 49 49 48 48 48 49 49 49 50 50 51 51 52 52 52 52 52 51 51 51 51 50 49 49 49 48 48 48 49 49 49 48 47 45 44 43 43 42 41 41 41 41 41 40 40 40 41 41 41 42 43 45 46 47 48 48 48 47 47 46 45 45 45 46 47 47 48 49 51 52 53 53 54 54 53 53 52 52 51 51
54 54 53 53 52 51 50 49 48 49 49 49 49 49 50 50 51 51 52 52 52 52 52 52 52 52 51 50 49 49 49 48 47 47 48 48 48 48 48 46 45 44 43 42 42 41 41 41 41 41 40 40 41 40 40 41 41 42 43 44 45 46 46 46 46 45 45 44 45 45 46 47 48 49 51 52 52 53 53 53 52 52 51 51 51 50
52 52 52 52 51 51 50 49 49 49 49 49 49 49 50 50 51 52 52 53 52 52 52 52 53 52 51 50 50 50 49 47 46 47 47 47 47 48 48 47 45 44 44 43 42 42 41 41 41 41 40 40 40 40 40 40 40 40 41 41 42 43 44 45 45 45 45 45 45 45 46 47 47 48 49 50 50 50 50 50 50 49 49 49 49 48
52 51 51 51 51 50 50 49 49 49 49 49 50 50 50 51 51 52 53 53 52 52 52 53 53 52 51 51 50 50 49 48 47 46 46 45 46 48 48 46 44 44 44 44 43 42 42 42 41 41 40 40 40 40 40 40 40 40 40 40 40 41 42 42 43 44 44 45 45 45 45 45 46 46 47 47 47 47 47 47 47 46 46 46 46 46
51 51 50 50 50 50 50 49 49 49 49 49 50 50 51 51 52 52 53 53 52 52 53 53 53 52 51 51 50 50 49 49 47 45 43 43 45 47 47 44 44 44 44 43 42 42 42 42 42 40 40 40 40 40 40 40 40 40 40 40 40 40 40 41 42 42 43 44 44 44 44 44 44 45 45 45 45 45 45 44 44 44 44 44 44 44
51 50 49 50 50 50 49 49 49 49 49 49 50 50 51 51 52 52 53 53 52 52 53 53 53 52 51 50 50 50 50 49 47 44 41 42 45 47 45 43 43 44 44 43 42 42 43 43 42 41 40 40 40 40 40 40 40 40 40 40 40 40 40 40 41 41 42 42 43 43 43 43 44 44 44 44 43 43 43 42 42 42 42 43 43 44
50 49 49 49 49 49 49 49 49 49 49 49 50 50 51 51 52 52 53 53 53 53 53 53 53 52 51 51 50 50 50 49 46 43 41 42 44 45 44 42 43 44 44 43 43 43 43 43 42 41 40 40 40 40 40 39 40 40 40 40 40 40 40 40 40 40 41 41 42 42 42 43 43 43 43 43 42 42 42 41 41 41 42 42 43 44
50 49 48 48 48 48 48 48 48 49 49 49 50 50 51 51 52 52 53 53 54 54 54 54 53 53 52 51 51 51 50 49 46 44 42 42 43 43 43 42 42 43 43 43 43 43 44 44 43 42 41 41 41 40 39 39 39 40 40 40 40 40 40 40 40 40 40 41 41 41 42 42 42 42 42 42 42 41 41 41 41 41 42 43 43 44
49 48 48 47 47 47 47 47 48 48 49 49 50 50 50 51 52 52 53 53 54 54 54 54 54 53 53 52 51 51 50 48 47 45 42 41 42 42 42 41 42 43 43 42 42 43 43 44 43 42 42 42 41 41 40 39 40 40 40 40 40 40 40 40 40 40 40 40 40 41 41 41 42 42 42 42 41 41 41 41 41 42 42 43 44 44
49 48 48 47 46 46 46 46 47 47 48 49 49 50 50 51 51 52 53 54 54 54 54 55 55 54 53 53 52 51 50 48 47 45 43 42 42 42 41 41 42 43 43 42 42 41 42 43 43 43 42 42 42 42 41 40 40 40 40 40 40 40 40 40 40 40 40 40 40 40 41 41 41 41 42 42 42 41 41 41 42 42 43 43 44 45
48 48 48 47 46 45 45 45 45 46 47 48 49 49 50 50 51 52 53 53 54 54 54 55 55 55 54 54 53 51 50 49 47 45 43 43 43 42 41 41 42 42 42 42 42 41 41 42 42 42 42 42 42 42 42 41 40 40 40 41 41 41 41 40 40 40 40 40 40 41 41 41 41 41 42 42 42 42 42 42 42 43 43 44 44 45
48 48 48 46 45 45 44 44 44 44 45 47 48 49 49 50 51 52 52 53 54 54 55 55 55 56 55 55 54 53 52 50 48 46 45 44 43 42 41 42 42 42 42 42 42 42 41 41 41 41 41 42 42 42 42 41 40 40 41 41 41 41 41 41 41 41 41 41 41 41 41 41 41 41 42 42 42 42 42 42 43 43 44 44 44 45
48 48 47 46 45 44 44 43 43 43 44 46 47 48 49 49 50 51 52 52 53 54 55 55 56 56 56 55 55 54 53 51 49 48 47 45 44 42 41 41 41 41 42 42 42 42 41 41 41 41 41 41 42 42 41 40 40 40 41 41 41 40 41 41 41 41 41 42 42 41 41 41 41 42 42 42 42 42 42 43 43 44 44 44 44 45
48 47 47 45 44 43 43 42 42 42 43 45 46 47 48 49 50 51 51 52 53 53 54 55 56 56 56 56 55 54 53 52 51 49 48 46 44 43 42 41 41 41 41 42 42 41 41 41 41 41 41 40 40 40 40 40 40 40 41 40 40 40 41 41 41 41 42 42 42 42 42 42 42 42 42 42 42 42 43 43 44 44 44 44 44 44
47 47 46 45 43 42 41 41 41 42 43 44 45 46 47 48 49 50 51 52 52 53 54 55 56 56 56 56 55 55 54 53 52 51 49 47 45 44 42 42 41 41 41 40 41 41 41 42 42 42 41 40 40 39 39 39 39 40 40 39 40 40 41 41 41 41 41 42 42 42 42 42 42 42 42 42 42 42 43 43 43 44 44 44 44 44
47 47 46 45 43 41 40 40 41 41 42 43 44 46 47 48 49 50 51 51 52 52 53 54 55 55 56 56 56 55 54 54 53 51 50 48 47 45 43 42 42 41 40 40 40 40 41 41 41 41 41 41 40 40 39 39 39 39 39 39 40 41 41 40 40 41 41 42 42 42 42 42 42 42 42 42 42 42 42 42 43 43 43 43 43 43
45 46 46 45 43 42 41 40 40 40 41 42 43 45 46 47 48 49 50 51 51 52 52 53 53 54 55 55 55 55 55 54 53 52 51 49 47 46 44 43 42 42 41 40 40 40 40 40 40 40 41 41 40 40 40 40 39 39 39 40 41 41 40 40 40 41 41 41 41 41 41 42 42 42 42 42 42 42 42 42 42 42 42 42 42 42
44 45 45 45 44 43 42 40 40 40 40 41 42 43 45 46 47 48 49 50 51 51 52 52 53 53 54 55 55 55 54 54 53 53 51 50 48 47 45 44 43 42 41 40 40 40 40 40 40 40 40 40 40 40 41 40 40 39 39 40 40 40 40 41 41 41 40 40 41 41 41 41 41 41 41 41 41 41 41 41 41 41 41 41 41 41
44 45 45 45 44 44 42 41 40 40 40 41 41 42 43 44 45 47 48 49 50 51 51 51 52 52 53 54 55 55 54 54 53 53 52 51 49 48 46 45 44 43 42 41 41 40 40 39 39 40 40 40 40 40 41 41 40 40 39 40 40 40 41 41 41 40 40 40 40 40 40 40 40 40 40 40 41 41 40 41 41 41 40 40 40 40
43 44 44 44 44 43 43 42 41 40 40 40 41 41 42 42 43 45 47 48 49 50 51 51 51 51 52 53 54 54 54 53 53 52 52 51 50 49 47 46 45 44 43 43 42 41 40 39 39 39 39 39 39 40 41 41 40 40 39 39 39 39 40 41 40 39 40 40 40 40 39 39 39 39 40 40 40 40 40 40 40 40 40 39 39 40
43 43 43 44 43 43 43 42 41 40 40 40 40 41 41 42 42 43 45 46 47 48 50 50 51 51 52 53 53 53 53 53 53 53 52 51 50 50 49 48 47 46 45 44 44 43 41 40 40 39 39 38 39 40 41 41 40 39 39 39 38 38 39 39 39 39 39 40 40 40 39 39 39 39 39 40 40 40 40 40 39 39 39 39 39 39
42 42 43 43 43 43 42 42 41 40 40 40 41 41 41 41 42 43 44 45 45 46 47 49 50 51 52 53 52 52 52 52 53 53 52 51 50 50 49 49 48 48 47 46 45 44 43 43 42 41 39 39 40 40 41 40 40 39 39 39 38 37 37 37 37 37 37 38 38 39 39 39 39 39 40 40 40 39 39 39 39 39 39 38 39 39
41 41 41 41 42 42 42 41 41 40 40 41 41 41 41 41 41 42 43 44 43 43 44 46 49 51 52 52 52 51 51 52 52 53 53 52 51 50 49 49 48 48 48 48 47 46 46 45 44 43 42 41 41 41 40 40 39 39 40 39 38 37 37 37 36 36 36 36 37 38 38 38 38 39 40 40 39 39 39 39 39 39 39 39 39 39
40 40 40 40 40 41 41 40 40 40 40 40 41 41 41 41 42 43 43 44 43 42 41 43 46 50 52 52 51 51 51 51 52 52 53 52 52 51 50 49 48 48 48 48 48 48 48 47 47 46 45 44 43 42 41 40 40 40 40 39 38 37 37 36 36 35 35 35 36 36 37 37 38 38 39 39 39 39 39 39 39 39 39 39 39 39
40 39 39 39 39 39 39 39 39 39 39 39 40 40 41 41 42 43 44 44 43 42 42 42 45 48 50 51 51 50 50 50 51 52 52 52 53 52 51 49 48 48 48 48 48 48 48 49 49 48 47 46 45 44 43 42 41 40 39 39 38 37 36 36 35 34 34 35 35 35 35 36 36 37 38 38 39 39 39 39 39 39 39 39 39 39
39 39 38 38 38 38 38 38 38 38 38 38 39 39 40 41 42 43 43 44 44 44 44 44 45 47 49 49 49 49 49 50 50 51 51 52 52 52 52 51 50 48 48 48 48 48 48 49 49 50 49 48 47 46 45 44 42 41 40 39 38 37 36 35 35 34 34 34 34 35 35 35 35 36 36 37 38 38 39 39 39 39 39 39 39 39
Wind_Direction
259 257 254 252 251 249 247 245 243 241 240 239 239 241 243 245 247 247 246 244 241 238 235 233 232 231 232 232 233 234 236 238 240 241 242 242 242 243 243 243 243 243 244 244 244 243 243 242 241 241 241 241 242 243 244 244 245 245 246 247 248 250 251 251 252 252 253 253 253 254 255 256 256 256 256 257 258 259 261 262 262 260 259 258 257 258
265 263 261 259 257 255 252 250 248 245 243 241 240 240 241 242 244 245 247 247 245 242 239 236 234 233 232 232 232 233 236 239 242 244 244 244 243 243 243 243 243 244 245 245 244 243 242 241 241 241 241 242 243 244 244 244 245 245 246 246 248 250 251 251 252 252 252 251 250 251 253 255 257 258 258 259 259 260 261 262 262 261 259 257 257 257
266 266 265 264 262 260 258 256 254 251 248 246 244 242 242 242 242 243 244 246 246 245 243 240 237 234 233 232 232 233 236 241 245 247 247 246 244 243 241 241 241 243 245 244 244 243 242 241 240 240 240 242 243 244 244 245 246 246 246 246 247 249 250 251 250 250 249 248 247 247 248 250 253 256 258 259 259 260 261 261 261 260 258 257 257 258
265 265 265 265 265 264 263 261 259 256 254 251 249 247 245 243 243 242 243 243 244 244 244 243 240 237 234 232 232 234 237 243 247 250 249 247 244 242 239 238 239 241 243 243 242 241 241 240 239 238 239 240 241 242 243 244 245 246 246 246 248 250 251 250 248 247 246 245 244 244 245 247 249 252 254 256 257 258 259 260 260 259 257 256 256 258
263 263 263 264 264 265 264 264 263 261 258 256 253 251 249 247 245 244 242 242 241 242 242 243 242 240 236 233 233 234 238 243 248 250 249 247 244 240 238 238 240 242 244 243 240 239 239 239 238 238 238 239 239 240 242 243 244 245 245 246 249 252 252 249 246 244 243 243 243 244 245 247 249 250 251 252 253 254 256 257 258 257 256 255 256 259
261 261 261 262 262 263 264 264 264 263 262 260 258 256 254 252 250 248 245 243 241 241 241 242 242 241 239 235 234 235 238 242 246 247 248 247 244 240 239 239 242 244 244 242 239 237 237 238 239 239 239 239 239 239 240 241 242 244 245 247 250 252 251 247 243 241 241 241 242 244 246 249 250 250 249 249 249 250 251 253 254 254 253 254 257 260
260 259 260 260 260 261 262 262 263 263 263 262 261 260 258 257 255 253 250 248 245 243 242 242 242 241 240 237 235 236 238 241 244 246 247 247 244 242 241 241 242 243 243 241 238 237 237 238 239 240 240 240 240 240 240 240 241 243 245 248 251 251 247 243 241 241 241 241 242 244 247 250 251 250 249 248 248 248 248 249 249 250 251 254 258 262
260 259 258 258 259 260 260 261 261 262 262 263 262 262 260 259 258 256 255 253 250 248 246 244 243 242 240 239 237 237 238 241 244 246 248 246 244 242 242 243 243 242 242 240 239 238 238 239 241 242 242 242 242 241 240 240 240 242 245 249 250 247 243 241 241 242 242 242 243 245 247 249 250 250 250 249 249 248 247 247 247 248 250 255 260 264
262 260 259 258 258 259 259 259 260 260 261 261 261 261 260 260 259 258 256 255 253 251 250 248 246 244 243 241 241 240 241 243 245 247 248 247 244 243 243 244 244 243 242 241 241 241 242 244 245 246 246 245 245 243 242 241 240 242 245 249 248 244 241 241 243 245 245 245 246 247 248 249 250 251 251 251 251 251 249 248 247 247 250 255 262 266
263 262 261 259 258 258 258 258 259 259 259 259 259 259 259 259 258 257 256 254 253 253 252 251 250 248 247 246 246 245 246 246 248 249 249 248 246 245 244 245 245 245 244 244 244 245 247 248 249 250 250 249 248 246 244 242 241 241 244 247 247 245 243 244 246 247 247 247 248 248 249 249 250 250 251 251 251 252 251 250 248 247 249 255 262 267
264 263 262 261 260 259 258 258 258 258 258 258 258 258 258 257 257 256 255 254 253 253 252 252 251 251 251 250 250 250 250 251 251 251 251 250 249 247 247 246 246 246 246 246 247 247 249 250 250 250 250 249 249 248 246 244 241 240 242 245 247 247 247 248 249 249 249 248 249 249 249 249 249 249 250 250 250 251 252 251 250 248 249 254 260 265
264 264 263 263 262 261 259 259 258 258 258 258 258 257 257 256 255 255 254 254 253 252 252 251 251 251 251 251 252 252 253 254 254 254 253 252 251 250 249 248 248 247 247 247 247 248 248 248 248 248 248 248 248 248 248 245 242 241 241 243 245 247 249 249 249 249 249 249 249 249 249 248 248 248 249 249 250 250 251 251 251 250 249 252 257 261
264 263 263 263 262 262 261 260 259 258 258 257 257 257 256 255 254 254 254 254 253 252 251 251 251 251 251 251 251 252 253 254 255 256 256 255 254 253 252 251 250 249 248 247 247 247 247 247 247 246 247 247 247 248 247 246 243 241 240 241 244 246 248 248 248 248 248 248 248 248 247 247 247 247 248 249 250 251 252 252 251 249 249 251 253 256
263 263 262 262 262 262 262 262 261 259 258 257 256 256 255 255 254 254 254 253 253 252 251 251 251 251 251 251 251 252 252 253 254 255 256 256 256 256 255 253 252 251 249 248 247 247 246 246 245 245 246 246 247 247 246 245 243 241 240 241 243 245 246 247 247 247 247 246 246 246 245 245 246 248 249 251 252 252 251 250 248 247 247 249 250 252
263 262 261 260 261 261 261 262 261 260 259 257 256 255 255 254 254 254 254 253 253 252 251 251 252 252 251 252 252 252 252 252 252 253 254 255 256 256 256 256 255 253 252 250 249 248 247 246 245 245 245 246 246 246 246 245 243 242 240 241 242 243 244 245 245 244 244 244 243 243 243 244 246 248 250 252 252 251 248 246 244 244 245 247 248 249
263 262 261 260 259 259 259 260 261 261 260 259 257 256 255 254 254 253 253 253 253 253 252 252 252 252 252 252 252 253 253 252 252 252 252 253 254 255 256 256 257 256 255 253 251 250 249 247 246 246 246 245 246 246 246 245 244 242 241 241 242 243 243 243 242 242 241 241 241 241 242 243 245 248 251 252 250 248 244 242 242 243 245 247 248 248
263 262 262 260 259 258 258 258 258 259 260 259 259 257 255 254 253 253 253 253 253 253 253 252 252 252 252 253 253 253 253 253 253 252 252 252 252 253 254 255 256 257 256 255 254 252 251 249 248 247 247 246 245 244 244 243 243 242 242 242 242 243 243 243 242 242 242 241 241 242 242 242 244 247 249 250 247 245 243 244 245 247 248 249 249 250
263 261 261 260 259 258 257 257 256 257 258 259 259 258 257 255 254 253 253 253 253 253 253 253 253 253 253 252 252 252 252 253 253 252 252 251 251 251 252 253 255 256 257 257 256 255 253 251 250 248 247 246 245 243 242 241 241 241 241 241 242 242 243 243 243 244 244 244 244 243 243 242 243 244 246 246 245 244 245 247 249 250 250 251 251 252
264 261 260 259 259 259 258 256 255 255 255 257 258 258 258 257 256 254 253 253 253 253 253 253 253 253 253 252 252 251 251 251 252 252 251 251 250 250 251 251 253 254 255 256 256 256 255 253 251 249 248 247 245 243 241 240 239 239 240 240 241 242 242 243 244 244 244 245 245 245 244 243 242 241 241 242 242 244 245 247 248 249 250 251 252 254
265 263 260 258 257 257 257 256 255 254 253 254 255 256 257 257 256 255 254 253 253 253 253 253 253 253 253 252 252 251 250 250 250 251 251 250 250 250 250 251 251 252 253 254 255 255 255 254 252 250 248 247 245 244 242 240 239 239 239 240 241 242 243 243 244 244 244 244 245 245 245 244 243 241 241 241 242 244 245 247 248 250 251 253 254 256
266 264 262 259 257 255 255 255 254 253 253 253 253 254 255 256 256 256 255 254 253 253 253 252 252 252 252 252 251 251 250 249 250 250 250 250 250 250 250 250 251 252 252 253 253 254 254 254 253 251 249 247 246 245 243 242 241 240 241 242 243 243 244 244 244 243 243 244 245 246 246 246 245 244 244 244 245 246 248 250 251 252 254 255 256 257
266 265 263 260 257 255 253 252 252 252 252 252 252 252 253 254 255 255 255 255 254 253 253 252 252 252 251 251 251 251 250 249 249 249 250 250 250 250 250 250 251 252 252 252 253 253 253 253 253 252 250 248 246 245 244 243 243 242 242 243 244 244 244 244 243 243 243 244 245 247 248 248 247 247 247 247 248 249 251 252 253 254 255 256 257 258
266 266 264 262 259 256 254 251 250 250 250 250 250 250 251 252 253 254 255 255 255 254 253 252 252 252 252 251 251 251 250 250 249 249 249 250 249 249 250 250 251 252 252 252 252 252 252 252 252 252 251 249 248 246 245 245 244 244 244 244 244 244 244 243 243 243 244 245 247 248 249 249 249 249 249 250 250 251 252 252 253 254 255 256 257 259
266 266 265 263 261 258 255 252 250 248 248 248 248 249 250 250 251 252 253 253 254 254 254 253 253 252 252 252 251 251 251 250 250 250 249 249 249 249 249 249 250 251 251 251 251 251 251 251 251 251 250 250 248 247 246 245 245 245 244 244 243 243 242 242 242 243 244 245 246 248 248 249 249 249 249 250 250 251 252 253 253 254 255 256 257 259
265 265 265 264 262 260 257 254 251 249 247 246 246 247 247 248 249 250 250 251 252 253 254 254 253 253 252 252 251 251 251 251 250 250 250 249 249 248 248 248 248 249 250 250 250 250 250 250 250 250 249 249 248 247 247 246 246 245 245 244 243 242 241 241 241 242 242 243 244 245 246 247 248 248 248 249 250 251 252 253 254 254 255 256 258 259
265 265 265 264 262 260 258 255 252 250 248 246 245 244 245 246 247 248 249 250 251 252 252 253 253 252 252 252 252 251 251 251 251 250 250 250 249 249 248 247 247 248 248 249 249 249 249 249 249 249 248 248 248 247 247 246 246 246 245 245 244 243 242 241 241 241 241 241 242 242 243 244 245 246 247 248 249 250 251 252 254 255 256 256 257 258
265 264 264 263 262 261 258 256 254 251 249 247 245 244 243 243 244 245 247 248 249 250 251 252 252 252 252 252 252 251 251 251 251 251 250 250 250 249 248 247 247 247 247 247 247 247 247 248 248 248 248 247 247 247 246 246 245 245 245 245 244 243 243 242 241 241 240 240 240 241 241 242 243 244 245 246 248 249 250 252 253 254 255 255 256 257
264 264 263 263 262 260 259 257 254 252 250 248 246 244 243 242 242 243 244 245 247 248 249 250 251 252 252 252 252 251 251 250 250 250 251 250 250 250 249 248 247 247 247 247 246 246 246 247 247 247 247 246 246 246 246 245 245 244 244 244 243 243 242 242 241 241 240 240 240 240 241 242 242 243 244 245 246 247 248 249 251 252 252 253 254 255
264 263 262 262 261 260 259 257 255 253 251 249 247 245 243 242 241 242 243 244 245 246 247 248 249 250 251 251 251 251 251 250 250 250 250 251 251 250 250 249 248 247 247 247 246 245 245 245 246 246 245 245 245 245 244 244 243 243 242 242 242 241 241 241 241 241 241 241 241 241 241 241 242 242 243 244 244 245 246 247 248 249 250 251 252 253
263 262 262 261 260 259 258 257 255 253 251 250 248 246 244 243 241 241 242 243 244 244 245 246 247 248 249 250 251 251 251 250 249 249 250 251 251 251 250 249 249 248 248 247 247 246 245 244 244 244 244 244 243 243 243 243 242 242 241 241 240 240 240 240 240 241 241 242 242 242 242 242 242 243 243 243 244 244 245 246 247 248 249 250 251 252
263 262 261 260 259 258 257 256 255 253 252 250 248 247 245 244 242 241 242 242 243 243 244 245 246 246 247 248 250 250 250 250 249 249 250 250 250 251 250 249 248 248 248 247 247 246 245 244 243 243 243 243 242 242 242 242 242 241 241 240 240 240 239 239 240 240 241 242 242 243 243 244 244 244 244 245 245 245 245 246 247 248 249 250 251 251
263 262 261 260 259 258 257 256 255 253 252 250 248 247 246 244 243 242 241 241 242 242 243 244 245 245 246 246 247 248 249 250 249 249 248 249 249 250 250 249 248 248 248 247 246 245 245 244 243 242 242 242 242 242 241 242 242 242 242 241 241 240 240 240 240 241 241 242 243 243 244 245 246 246 246 246 247 247 247 247 248 248 249 250 251 251
263 263 262 260 259 258 256 255 254 253 251 250 248 247 246 245 243 242 241 241 241 242 243 244 245 245 245 245 246 247 248 249 249 248 247 247 248 249 249 248 247 247 247 247 246 245 245 244 243 242 241 241 241 241 242 242 242 242 242 242 242 242 241 241 241 242 242 242 242 243 244 245 245 246 247 247 247 248 248 248 248 249 249 250 250 251
264 263 262 261 259 258 257 255 253 252 251 250 248 247 246 245 244 242 241 241 241 241 242 243 245 245 245 245 245 246 247 248 249 248 247 247 248 248 248 247 246 246 246 246 245 245 245 244 244 243 241 241 241 241 242 242 242 243 243 243 243 243 243 243 243 243 243 243 243 243 243 244 244 245 246 247 247 248 248 249 249 249 249 249 250 250
264 263 262 261 260 259 257 255 254 252 251 249 248 247 246 245 244 243 242 241 240 240 241 242 243 244 245 245 245 245 246 247 247 247 247 247 247 247 247 246 245 245 245 245 244 244 244 244 244 243 242 242 241 241 242 242 242 243 243 243 244 244 244 244 244 244 244 244 244 244 244 244 244 244 245 246 247 248 248 249 249 249 249 249 249 249
264 263 263 262 261 259 258 256 254 252 251 250 248 247 246 244 244 243 242 241 240 240 240 241 242 243 243 244 244 244 245 245 246 246 246 246 246 247 247 246 245 244 244 244 244 243 243 243 243 243 243 242 242 242 242 242 242 243 244 244 244 244 244 245 245 245 245 245 245 245 244 244 244 245 245 246 246 247 248 249 249 249 249 249 249 249
264 263 263 262 261 260 258 257 255 253 251 250 249 247 246 245 244 243 242 241 241 240 240 241 241 242 242 242 242 243 243 244 245 244 244 244 245 246 246 246 245 244 243 243 243 243 242 242 242 243 243 242 242 242 242 242 242 243 244 244 245 245 245 245 245 245 245 246 246 245 245 245 245 245 245 246 246 247 248 248 248 248 248 248 248 248
264 264 263 262 261 260 259 258 256 254 252 250 249 248 246 245 244 243 242 241 241 240 240 240 241 241 242 242 241 242 242 244 244 244 243 243 244 244 245 245 245 244 243 243 243 243 242 241 242 242 242 242 242 242 242 242 242 243 243 244 244 244 245 245 245 246 246 246 246 246 246 245 245 245 245 246 246 246 246 247 247 248 248 248 247 247
264 264 263 263 262 261 260 258 256 254 252 251 250 249 247 246 244 243 242 242 241 241 240 240 241 241 241 241 241 241 242 242 243 243 242 242 242 243 244 245 245 245 244 243 243 243 243 242 242 242 242 242 242 242 242 242 242 242 243 243 243 244 244 244 245 245 246 246 247 247 247 246 246 246 246 246 246 246 246 246 246 247 247 247 247 247
263 263 263 263 262 262 260 258 256 254 252 251 250 249 248 246 245 244 243 242 241 241 241 240 241 241 240 240 240 241 241 241 242 242 242 241 241 242 243 244 244 244 244 243 243 243 243 243 242 242 242 242 242 242 242 241 241 242 242 242 243 243 243 243 244 244 245 246 246 247 247 247 247 247 246 246 246 246 245 245 246 246 246 246 246 246
264 264 263 263 262 261 259 258 256 254 252 250 249 249 248 247 246 245 244 243 242 241 241 241 241 241 241 240 240 240 240 241 241 241 241 241 240 241 241 242 243 244 244 243 243 243 243 243 243 243 242 242 242 242 241 241 241 241 241 242 242 243 243 243 243 244 244 245 245 246 247 247 247 247 247 247 247 246 246 245 245 245 245 245 246 245
265 264 263 263 262 260 259 258 256 255 253 251 249 248 247 247 246 245 245 244 243 242 242 242 242 242 241 241 240 240 240 240 240 240 240 240 240 239 240 241 242 243 243 243 243 243 243 243 243 243 243 243 242 242 242 241 240 240 241 242 242 243 243 243 243 243 244 244 245 246 246 247 247 247 247 247 247 247 246 245 245 244 244 244 244 245
262 262 262 262 261 260 259 257 256 255 254 252 250 249 248 247 247 246 245 244 243 243 242 242 242 242 242 241 241 240 239 239 239 240 240 239 239 239 238 239 240 241 241 242 242 242 243 242 243 243 243 243 243 243 242 241 240 240 240 241 243 244 244 244 244 244 244 245 245 246 246 246 247 247 247 247 247 246 246 245 244 244 243 243 243 243
260 260 261 261 261 260 259 257 256 254 253 252 251 250 249 249 248 248 247 246 245 244 243 243 242 242 242 242 241 241 240 239 239 239 239 239 239 238 237 237 238 239 240 240 241 241 242 242 242 243 243 244 243 243 243 242 242 241 240 241 243 244 244 245 245 245 245 246 246 246 246 246 246 247 247 247 246 246 245 244 244 243 243 242 242 242
260 260 260 260 260 260 259 257 255 254 252 252 251 250 250 250 249 249 248 247 246 245 244 243 243 243 243 242 242 241 240 239 239 239 239 239 239 238 237 237 237 238 238 239 240 240 241 241 242 242 243 243 243 243 243 243 242 242 241 242 242 243 244 245 245 245 246 246 246 247 246 246 246 246 246 246 246 245 245 244 244 243 243 242 242 242
260 260 260 260 259 259 258 257 255 253 252 251 250 250 249 249 249 249 249 249 249 248 246 244 243 243 243 242 242 242 241 240 239 239 238 238 239 238 238 237 237 237 238 238 239 240 241 241 241 242 242 243 243 243 243 243 243 242 242 242 243 243 244 245 246 246 246 247 247 247 247 247 246 246 246 246 246 245 245 244 244 243 243 242 242 242
261 260 260 259 259 258 258 257 255 254 252 251 250 249 248 248 248 248 248 249 250 250 249 247 245 243 242 242 243 243 242 241 240 239 238 238 238 238 239 239 238 238 238 238 239 240 240 241 241 241 242 242 243 243 243 243 243 243 242 242 242 243 244 245 245 246 246 247 248 248 248 247 247 247 247 246 246 245 245 244 244 243 242 242 242 242
261 260 260 260 259 258 257 257 255 254 252 251 250 249 248 247 248 248 249 249 249 250 250 249 247 244 242 242 242 242 242 241 241 241 239 238 238 238 239 240 240 240 240 240 240 240 240 241 241 241 242 242 242 243 243 243 243 243 242 242 242 242 243 244 245 245 246 247 248 248 248 248 248 248 247 247 246 245 244 243 243 242 241 241 241 241
261 260 260 260 259 258 257 256 255 254 253 251 250 249 248 247 247 247 248 249 249 249 248 249 248 246 244 242 242 241 241 241 242 242 241 239 238 238 238 240 241 242 242 242 242 241 241 241 241 241 241 241 242 242 243 243 243 242 242 242 242 242 242 243 244 245 246 247 248 248 249 249 249 248 248 247 246 245 244 243 242 241 241 240 240 240
260 260 260 259 259 258 257 256 255 254 253 251 250 249 248 247 246 246 247 248 249 248 247 247 247 247 246 244 243 242 242 241 241 242 242 241 239 238 238 239 241 242 243 244 244 244 244 243 242 241 241 241 241 242 243 243 243 243 242 243 242 242 242 242 243 244 245 246 247 248 249 249 249 249 249 248 247 246 245 243 242 241 240 239 239 239
260 259 259 258 258 257 256 256 255 254 253 251 250 249 248 247 246 246 246 247 248 248 247 247 247 247 247 245 244 244 243 242 241 241 241 241 240 239 238 239 240 242 243 244 245 245 245 245 245 243 242 241 241 241 242 243 243 243 243 242 242 242 241 242 242 243 243 244 246 247 248 249 249 249 249 249 248 247 246 245 244 242 241 240 239 238
Height
3007 3007 3007 3008 3008 3009 3009 3009 3010 3010 3011 3012 3014 3015 3016 3017 3018 3018 3019 3021 3022 3024 3025 3026 3027 3028 3030 3031 3033 3035 3037 3038 3040 3041 3043 3044 3046 3047 3048 3049 3050 3051 3052 3054 3055 3056 3057 3058 3060 3061 3062 3063 3064 3066 3067 3068 3069 3070 3071 3072 3073 3074 3076 3076 3076 3076 3076 3076 3076 3076 3077 3078 3080 3082 3082 3083 3083 3084 3084 3085 3086 3087 3087 3088 3089 3090
3004 3004 3005 3005 3006 3006 3006 3007 3007 3007 3008 3009 3010 3011 3012 3013 3014 3015 3016 3017 3018 3019 3021 3022 3023 3025 3026 3027 3029 3031 3032 3034 3035 3037 3038 3040 3041 3042 3043 3044 3046 3047 3048 3050 3051 3052 3052 3054 3056 3057 3058 3059 3060 3062 3063 3064 3065 3066 3067 3068 3069 3071 3072 3072 3072 3072 3072 3072 3072 3072 3073 3074 3076 3077 3078 3079 3080 3080 3081 3082 3082 3083 3084 3085 3085 3086
3002 3002 3002 3002 3002 3003 3003 3004 3004 3005 3005 3005 3006 3007 3008 3009 3010 3011 3012 3013 3014 3015 3016 3017 3019 3020 3022 3023 3025 3027 3028 3029 3031 3032 3034 3035 3037 3038 3039 3040 3041 3043 3044 3045 3047 3047 3047 3049 3051 3052 3054 3055 3056 3057 3059 3060 3061 3062 3063 3064 3065 3067 3068 3069 3069 3069 3069 3069 3069 3069 3069 3070 3072 3073 3074 3075 3076 3077 3077 3078 3079 3080 3080 3081 3082 3083
3000 2999 2999 3000 3000 3000 3001 3001 3001 3002 3002 3002 3003 3004 3004 3005 3006 3007 3008 3009 3010 3011 3011 3012 3014 3016 3017 3019 3021 3022 3023 3024 3026 3027 3028 3030 3032 3033 3035 3037 3037 3039 3040 3041 3042 3042 3043 3044 3046 3047 3049 3050 3052 3053 3054 3056 3057 3059 3060 3061 3062 3062 3064 3065 3067 3067 3067 3067 3066 3066 3066 3067 3068 3069 3071 3072 3072 3072 3073 3074 3075 3076 3077 3077 3078 3079
2997 2997 2997 2997 2998 2998 2998 2998 2999 2999 2999 2999 3000 3000 3001 3002 3002 3003 3004 3005 3006 3007 3008 3009 3010 3011 3013 3015 3017 3018 3019 3020 3021 3022 3023 3025 3027 3028 3030 3032 3033 3034 3036 3036 3037 3037 3038 3040 3041 3042 3044 3045 3047 3048 3050 3051 3053 3055 3056 3057 3057 3058 3060 3062 3063 3064 3064 3064 3064 3063 3062 3063 3064 3066 3067 3068 3068 3068 3069 3070 3071 3072 3073 3074 3075 3076
2994 2995 2995 2995 2995 2995 2996 2996 2996 2996 2996 2996 2997 2997 2997 2998 2999 3000 3001 3002 3002 3003 3004 3005 3006 3007 3008 3011 3012 3014 3015 3016 3017 3017 3019 3020 3022 3023 3025 3026 3028 3029 3031 3032 3032 3032 3033 3034 3036 3038 3039 3041 3042 3043 3045 3047 3048 3050 3051 3052 3053 3054 3055 3057 3059 3061 3062 3062 3061 3060 3059 3059 3060 3062 3064 3064 3064 3064 3065 3066 3067 3068 3069 3070 3071 3072
2992 2992 2992 2992 2992 2993 2993 2993 2993 2993 2993 2993 2994 2994 2995 2995 2996 2997 2997 2998 2999 3000 3001 3002 3002 3003 3005 3007 3008 3010 3011 3012 3012 3014 3015 3016 3017 3019 3020 3021 3022 3024 3025 3027 3027 3028 3029 3030 3031 3033 3035 3037 3038 3039 3041 3042 3044 3045 3047 3048 3049 3049 3051 3052 3054 3056 3057 3058 3058 3057 3056 3055 3056 3058 3059 3060 3060 3060 3060 3061 3062 3063 3065 3066 3067 3068
2989 2989 2989 2989 2990 2990 2990 2991 2991 2991 2991 2991 2991 2991 2992 2992 2993 2993 2994 2995 2995 2996 2997 2998 2999 3000 3001 3002 3004 3005 3006 3007 3008 3010 3011 3012 3013 3014 3016 3017 3017 3019 3020 3021 3022 3023 3024 3025 3027 3028 3030 3032 3033 3035 3036 3037 3039 3041 3042 3043 3044 3045 3047 3048 3049 3051 3052 3053 3054 3054 3052 3052 3052 3053 3055 3055 3055 3056 3056 3057 3058 3059 3060 3062 3063 3064
2985 2986 2986 2987 2987 2987 2987 2988 2988 2988 2988 2988 2988 2988 2989 2989 2990 2990 2991 2992 2992 2993 2994 2995 2996 2997 2998 2999 3000 3002 3002 3004 3005 3006 3007 3008 3008 3009 3011 3012 3012 3014 3015 3016 3017 3019 3020 3021 3022 3023 3025 3027 3028 3030 3032 3033 3034 3036 3038 3039 3040 3041 3042 3043 3044 3045 3047 3048 3049 3050 3049 3048 3048 3049 3050 3051 3051 3052 3052 3053 3054 3055 3056 3057 3059 3060
2982 2982 2983 2983 2984 2984 2984 2985 2985 2985 2985 2985 2985 2986 2986 2987 2987 2988 2988 2989 2989 2990 2991 2992 2992 2993 2994 2996 2997 2998 2999 3000 3001 3002 3002 3003 3004 3005 3006 3007 3007 3009 3010 3011 3012 3014 3015 3016 3017 3019 3020 3021 3023 3025 3026 3028 3029 3031 3033 3034 3036 3037 3037 3038 3039 3040 3041 3043 3044 3045 3045 3044 3044 3045 3045 3046 3047 3048 3049 3049 3050 3051 3051 3053 3054 3055
2978 2979 2979 2980 2981 2981 2982 2982 2982 2982 2982 2982 2982 2982 2983 2984 2984 2985 2985 2986 2987 2987 2988 2988 2989 2990 2991 2992 2993 2994 2994 2995 2996 2997 2998 2999 3000 3001 3001 3002 3003 3004 3005 3006 3007 3008 3010 3011 3012 3013 3015 3016 3017 3019 3021 3022 3024 3026 3027 3029 3031 3032 3033 3034 3035 3036 3037 3038 3039 3041 3041 3041 3040 3040 3041 3041 3042 3043 3044 3045 3045 3046 3047 3048 3050 3051
2975 2976 2976 2977 2977 2978 2978 2978 2978 2979 2979 2979 2979 2979 2980 2981 2981 2982 2982 2983 2984 2984 2985 2985 2986 2987 2988 2988 2989 2990 2991 2991 2992 2992 2993 2994 2995 2996 2997 2998 2998 2999 3000 3001 3002 3003 3005 3006 3007 3008 3009 3011 3012 3014 3015 3017 3019 3021 3022 3024 3026 3027 3028 3030 3032 3032 3033 3034 3035 3036 3036 3036 3036 3036 3036 3037 3037 3038 3039 3040 3041 3042 3043 3045 3047 3048
2972 2972 2973 2973 2974 2974 2975 2975 2976 2976 2977 2976 2976 2977 2977 2977 2978 2979 2979 2980 2980 2981 2982 2982 2983 2983 2984 2985 2986 2987 2987 2988 2988 2989 2989 2990 2991 2992 2992 2993 2994 2995 2996 2997 2998 2999 3000 3001 3002 3003 3004 3006 3008 3009 3011 3012 3014 3016 3018 3020 3021 3022 3024 3025 3027 3028 3028 3029 3031 3031 3032 3032 3032 3031 3031 3032 3033 3034 3035 3036 3037 3038 3040 3042 3043 3044
2969 2969 2970 2970 2970 2971 2971 2972 2972 2973 2973 2973 2973 2973 2974 2974 2975 2976 2976 2976 2977 2978 2978 2979 2979 2980 2981 2982 2983 2983 2984 2984 2985 2986 2986 2987 2987 2987 2988 2989 2990 2991 2992 2993 2994 2995 2996 2997 2998 2999 3000 3002 3003 3005 3007 3008 3009 3011 3013 3015 3016 3018 3019 3021 3022 3023 3024 3025 3026 3027 3027 3027 3027 3027 3027 3028 3029 3030 3031 3032 3033 3035 3036 3037 3039 3040
2965 2966 2966 2967 2967 2967 2968 2968 2969 2969 2970 2970 2970 2971 2971 2972 2972 2972 2972 2972 2973 2974 2975 2976 2976 2977 2978 2979 2980 2980 2981 2981 2982 2982 2983 2983 2984 2984 2985 2985 2985 2986 2987 2988 2989 2990 2992 2993 2994 2995 2996 2997 2999 3000 3002 3003 3005 3006 3008 3010 3012 3013 3014 3016 3017 3018 3019 3020 3021 3022 3022 3022 3022 3022 3023 3024 3025 3026 3027 3028 3030 3031 3032 3033 3034 3036
2961 2962 2962 2963 2963 2964 2965 2966 2966 2966 2966 2967 2967 2968 2968 2968 2968 2968 2969 2969 2970 2971 2972 2972 2972 2973 2975 2976 2977 2977 2977 2977 2978 2978 2979 2980 2980 2981 2981 2981 2981 2982 2983 2984 2985 2986 2987 2989 2990 2991 2992 2993 2995 2996 2998 2999 3000 3001 3003 3005 3007 3008 3009 3010 3012 3012 3014 3015 3016 3017 3017 3017 3018 3019 3020 3021 3022 3023 3024 3025 3026 3027 3028 3029 3031 3032
2957 2958 2958 2958 2960 2961 2962 2962 2962 2962 2963 2963 2964 2965 2965 2965 2965 2965 2966 2966 2967 2967 2968 2968 2969 2970 2971 2972 2973 2974 2974 2974 2974 2974 2975 2976 2976 2977 2978 2978 2978 2978 2979 2980 2981 2982 2983 2984 2986 2987 2988 2989 2991 2992 2993 2995 2996 2997 2998 3000 3002 3003 3004 3006 3007 3008 3009 3010 3011 3012 3012 3013 3014 3016 3017 3018 3020 3021 3022 3023 3024 3025 3026 3027 3028 3029
2952 2953 2954 2955 2956 2957 2958 2959 2959 2959 2960 2960 2961 2961 2961 2961 2962 2962 2962 2963 2963 2964 2964 2965 2966 2967 2967 2969 2970 2970 2971 2971 2970 2970 2971 2972 2972 2973 2974 2974 2974 2974 2975 2977 2977 2978 2979 2980 2981 2983 2984 2985 2987 2988 2989 2991 2992 2993 2994 2996 2997 2999 3000 3002 3003 3004 3005 3007 3007 3008 3009 3010 3012 3013 3015 3016 3018 3019 3020 3020 3021 3022 3022 3023 3024 3025
2947 2948 2949 2951 2951 2952 2954 2955 2956 2956 2957 2957 2957 2957 2958 2958 2958 2958 2959 2959 2960 2960 2961 2961 2962 2963 2964 2965 2966 2967 2968 2968 2967 2966 2967 2968 2968 2969 2970 2971 2971 2971 2972 2973 2974 2975 2975 2976 2977 2978 2980 2981 2983 2984 2985 2987 2987 2989 2990 2991 2993 2994 2996 2997 2999 3001 3002 3003 3004 3005 3006 3007 3008 3010 3012 3013 3014 3015 3016 3016 3017 3017 3018 3019 3020 3021
2942 2944 2945 2946 2947 2948 2950 2951 2951 2952 2953 2953 2953 2954 2954 2954 2954 2955 2956 2956 2956 2957 2957 2958 2958 2959 2960 2961 2962 2963 2964 2964 2963 2962 2963 2964 2964 2965 2967 2967 2967 2968 2969 2970 2971 2972 2972 2973 2974 2975 2976 2977 2979 2980 2981 2982 2983 2984 2986 2987 2988 2989 2991 2993 2995 2996 2998 2999 3000 3001 3002 3003 3005 3006 3007 3009 3010 3011 3011 3012 3012 3013 3014 3015 3015 3016
2937 2939 2941 2942 2943 2944 2945 2946 2947 2948 2949 2949 2950 2950 2950 2950 2950 2951 2952 2952 2952 2953 2953 2954 2955 2955 2956 2957 2958 2958 2960 2961 2960 2959 2959 2960 2961 2962 2963 2964 2964 2965 2966 2967 2967 2968 2969 2970 2970 2972 2973 2974 2975 2976 2977 2978 2980 2981 2982 2982 2983 2985 2987 2988 2990 2992 2993 2994 2996 2997 2997 2999 3000 3002 3003 3004 3005 3006 3007 3007 3008 3009 3009 3010 3011 3012
2933 2934 2936 2937 2939 2940 2940 2941 2942 2944 2945 2945 2946 2946 2946 2946 2947 2947 2948 2948 2949 2949 2949 2950 2950 2951 2952 2953 2954 2954 2956 2957 2957 2956 2956 2957 2958 2959 2960 2961 2962 2962 2962 2963 2964 2965 2966 2967 2967 2968 2969 2970 2972 2972 2973 2975 2976 2977 2978 2979 2980 2981 2982 2984 2985 2987 2988 2990 2991 2992 2993 2994 2996 2997 2998 3000 3001 3002 3002 3003 3004 3004 3005 3006 3007 3007
2928 2929 2930 2932 2934 2935 2935 2937 2938 2940 2941 2941 2941 2941 2941 2942 2943 2943 2944 2944 2945 2945 2945 2945 2946 2947 2948 2949 2950 2950 2952 2953 2953 2952 2953 2954 2955 2955 2957 2958 2959 2959 2959 2960 2961 2962 2963 2963 2964 2965 2966 2967 2968 2969 2970 2971 2972 2973 2974 2975 2976 2977 2979 2980 2982 2983 2985 2986 2987 2988 2989 2990 2992 2993 2994 2995 2997 2997 2998 2999 3000 3000 3001 3002 3002 3003
2923 2924 2925 2927 2929 2930 2931 2932 2933 2935 2936 2937 2937 2937 2937 2939 2939 2939 2939 2940 2941 2941 2941 2942 2942 2943 2944 2945 2945 2947 2948 2949 2949 2950 2950 2950 2951 2952 2954 2955 2956 2955 2956 2957 2958 2959 2960 2960 2960 2961 2962 2963 2964 2965 2967 2967 2968 2969 2970 2972 2973 2974 2975 2977 2978 2979 2981 2982 2984 2985 2986 2987 2988 2989 2990 2991 2992 2993 2994 2995 2995 2996 2997 2998 2999 3000
2918 2919 2920 2921 2923 2925 2926 2927 2928 2930 2931 2932 2933 2933 2934 2935 2935 2935 2935 2936 2937 2937 2937 2938 2939 2939 2940 2941 2942 2943 2944 2945 2946 2946 2947 2946 2947 2948 2950 2952 2952 2952 2952 2953 2955 2956 2956 2957 2957 2958 2959 2960 2961 2962 2963 2964 2965 2966 2967 2968 2969 2970 2972 2973 2974 2976 2977 2979 2980 2981 2982 2983 2984 2986 2987 2987 2988 2989 2990 2991 2992 2992 2993 2994 2995 2996
2914 2914 2915 2916 2917 2919 2921 2922 2923 2925 2926 2927 2928 2929 2930 2931 2931 2931 2932 2932 2933 2933 2933 2934 2935 2935 2936 2937 2939 2940 2940 2941 2942 2942 2942 2942 2943 2944 2946 2948 2948 2949 2949 2950 2951 2952 2953 2953 2953 2954 2956 2957 2957 2958 2959 2960 2962 2962 2963 2964 2965 2967 2968 2969 2971 2972 2973 2975 2976 2977 2978 2980 2981 2982 2983 2984 2985 2986 2987 2987 2988 2989 2990 2991 2992 2993
2910 2910 2911 2912 2912 2914 2915 2917 2918 2919 2921 2922 2923 2925 2925 2926 2927 2927 2928 2928 2928 2929 2930 2930 2931 2931 2932 2934 2935 2936 2936 2937 2938 2939 2938 2939 2940 2941 2942 2943 2945 2945 2945 2946 2947 2948 2949 2949 2950 2951 2952 2953 2954 2955 2956 2957 2958 2959 2960 2961 2962 2963 2964 2966 2967 2968 2970 2971 2972 2974 2975 2976 2977 2978 2979 2980 2981 2982 2983 2984 2985 2986 2987 2988 2989 2989
2906 2907 2907 2907 2908 2909 2910 2911 2913 2914 2916 2917 2918 2920 2921 2921 2922 2923 2923 2923 2924 2926 2927 2927 2927 2927 2928 2930 2931 2931 2932 2934 2935 2935 2935 2935 2936 2937 2937 2940 2941 2942 2942 2942 2943 2945 2946 2946 2947 2948 2949 2950 2951 2952 2953 2954 2955 2956 2957 2958 2959 2960 2961 2962 2964 2965 2966 2967 2968 2970 2971 2972 2973 2974 2975 2976 2977 2978 2979 2980 2982 2982 2983 2984 2985 2986
2902 2902 2902 2903 2903 2904 2905 2906 2907 2909 2910 2912 2913 2914 2915 2917 2917 2918 2918 2919 2921 2922 2923 2923 2923 2923 2925 2926 2927 2927 2928 2930 2931 2931 2932 2933 2933 2932 2933 2936 2938 2939 2938 2938 2939 2941 2942 2942 2943 2945 2946 2947 2947 2948 2949 2951 2952 2953 2954 2955 2956 2957 2958 2959 2960 2962 2962 2964 2965 2966 2967 2968 2969 2970 2971 2972 2973 2974 2975 2977 2978 2979 2979 2980 2981 2982
2898 2898 2898 2899 2899 2900 2901 2902 2902 2904 2905 2907 2908 2909 2910 2912 2912 2913 2913 2914 2917 2918 2918 2918 2918 2920 2921 2922 2923 2924 2925 2926 2927 2928 2929 2930 2929 2928 2929 2933 2935 2935 2934 2935 2936 2937 2938 2939 2940 2942 2943 2944 2944 2945 2946 2947 2948 2950 2951 2952 2952 2953 2954 2956 2957 2958 2959 2960 2961 2962 2963 2964 2965 2966 2967 2968 2969 2970 2972 2973 2974 2975 2975 2976 2977 2977
2893 2894 2894 2895 2895 2895 2896 2897 2898 2899 2900 2902 2903 2904 2905 2907 2908 2909 2909 2910 2912 2913 2914 2914 2915 2916 2918 2919 2919 2920 2920 2921 2922 2925 2927 2927 2926 2924 2926 2929 2931 2930 2930 2932 2933 2933 2934 2935 2937 2938 2940 2940 2941 2942 2943 2944 2945 2946 2947 2948 2949 2950 2951 2952 2953 2954 2956 2957 2957 2958 2959 2960 2961 2962 2963 2964 2965 2967 2968 2969 2970 2971 2971 2972 2973 2973
2888 2889 2890 2890 2891 2891 2892 2893 2894 2894 2896 2897 2898 2899 2900 2902 2903 2904 2905 2906 2907 2908 2909 2910 2911 2912 2914 2915 2915 2916 2916 2916 2919 2922 2925 2924 2922 2921 2922 2926 2927 2926 2926 2928 2929 2930 2930 2931 2933 2935 2936 2937 2937 2938 2939 2941 2942 2942 2943 2944 2945 2946 2947 2949 2950 2951 2952 2953 2954 2955 2956 2957 2958 2959 2960 2961 2962 2963 2964 2965 2966 2967 2967 2968 2969 2970
2884 2885 2885 2886 2886 2887 2887 2888 2889 2890 2891 2892 2893 2894 2896 2897 2898 2899 2900 2901 2902 2904 2905 2906 2907 2908 2909 2911 2911 2912 2912 2913 2916 2918 2920 2920 2918 2917 2919 2922 2923 2923 2922 2924 2925 2926 2927 2927 2929 2931 2932 2933 2934 2935 2936 2937 2938 2939 2940 2941 2942 2943 2944 2945 2946 2947 2948 2949 2950 2951 2952 2953 2954 2955 2956 2957 2958 2959 2960 2962 2962 2963 2964 2965 2966 2967
2879 2880 2881 2881 2882 2882 2883 2884 2885 2885 2886 2887 2888 2890 2891 2892 2893 2895 2896 2897 2898 2899 2900 2901 2902 2903 2905 2906 2907 2908 2909 2910 2911 2913 2916 2916 2915 2914 2915 2918 2919 2919 2919 2920 2921 2922 2923 2923 2925 2927 2928 2929 2930 2931 2932 2933 2935 2936 2937 2937 2938 2939 2940 2941 2942 2943 2944 2945 2946 2947 2948 2950 2951 2952 2952 2954 2955 2956 2957 2958 2959 2959 2960 2961 2962 2963
2875 2876 2876 2877 2877 2878 2878 2879 2880 2881 2882 2883 2884 2885 2887 2888 2889 2890 2891 2892 2893 2895 2896 2897 2897 2899 2900 2902 2903 2904 2905 2906 2907 2909 2911 2912 2911 2910 2912 2914 2915 2915 2915 2916 2917 2918 2920 2920 2921 2922 2924 2925 2926 2928 2929 2930 2931 2932 2933 2934 2935 2936 2937 2937 2939 2940 2941 2942 2942 2943 2944 2946 2947 2948 2949 2950 2951 2952 2953 2954 2955 2956 2957 2958 2959 2960
2870 2871 2872 2872 2873 2874 2874 2875 2876 2877 2878 2879 2880 2881 2882 2883 2885 2886 2887 2888 2889 2890 2891 2892 2893 2894 2896 2897 2898 2900 2901 2901 2902 2904 2907 2907 2907 2907 2908 2909 2910 2911 2912 2913 2914 2915 2916 2917 2917 2919 2920 2922 2923 2924 2925 2927 2928 2929 2930 2930 2931 2932 2933 2934 2935 2936 2937 2938 2939 2940 2941 2942 2943 2944 2945 2946 2947 2949 2950 2951 2952 2952 2953 2954 2955 2956
2866 2867 2867 2868 2869 2870 2871 2871 2872 2873 2874 2875 2875 2877 2878 2879 2880 2881 2882 2883 2885 2886 2887 2888 2889 2890 2891 2893 2894 2896 2897 2897 2898 2900 2902 2903 2903 2903 2905 2905 2906 2907 2909 2910 2910 2911 2912 2913 2914 2915 2917 2918 2919 2920 2922 2923 2925 2926 2926 2927 2928 2929 2930 2931 2932 2933 2933 2934 2935 2936 2937 2938 2940 2941 2942 2943 2944 2946 2947 2947 2948 2949 2950 2951 2952 2952
2862 2862 2863 2864 2865 2866 2867 2867 2868 2869 2870 2871 2871 2872 2873 2875 2876 2877 2878 2879 2880 2882 2882 2883 2884 2885 2887 2888 2890 2891 2892 2893 2894 2896 2897 2898 2899 2900 2901 2902 2902 2904 2906 2906 2907 2907 2909 2910 2911 2912 2912 2914 2915 2917 2918 2920 2922 2922 2923 2923 2925 2926 2927 2928 2929 2930 2930 2931 2932 2933 2934 2935 2936 2937 2938 2939 2941 2942 2943 2943 2944 2945 2946 2947 2948 2949
2857 2858 2859 2860 2861 2862 2863 2864 2864 2865 2866 2867 2867 2868 2869 2870 2871 2872 2873 2875 2876 2877 2878 2879 2879 2881 2882 2884 2885 2887 2888 2889 2890 2892 2893 2894 2896 2897 2898 2898 2899 2900 2902 2902 2903 2904 2906 2907 2907 2908 2909 2910 2912 2913 2915 2917 2918 2919 2919 2920 2922 2923 2923 2924 2925 2926 2927 2928 2929 2930 2931 2932 2933 2934 2935 2936 2937 2938 2939 2940 2941 2942 2943 2944 2945 2945
2854 2854 2855 2856 2857 2858 2859 2860 2860 2861 2862 2863 2863 2864 2865 2866 2867 2868 2869 2870 2871 2872 2873 2874 2875 2876 2878 2879 2881 2882 2884 2885 2886 2887 2889 2891 2892 2893 2895 2895 2896 2897 2898 2899 2900 2901 2902 2903 2904 2905 2906 2907 2909 2910 2912 2913 2914 2915 2916 2917 2919 2919 2920 2921 2922 2923 2924 2925 2926 2927 2927 2928 2930 2931 2931 2932 2933 2934 2935 2936 2937 2938 2939 2940 2941 2942
2850 2850 2851 2852 2853 2854 2855 2856 2856 2857 2858 2859 2859 2860 2861 2862 2862 2863 2864 2866 2867 2868 2869 2870 2871 2872 2874 2875 2877 2878 2879 2881 2882 2884 2885 2887 2888 2890 2891 2892 2893 2893 2894 2896 2897 2897 2898 2900 2901 2902 2903 2904 2905 2907 2908 2909 2911 2912 2913 2915 2915 2916 2917 2918 2919 2920 2921 2922 2923 2923 2924 2925 2926 2927 2928 2929 2930 2931 2932 2933 2934 2935 2936 2937 2937 2938
2847 2847 2847 2848 2849 2850 2851 2852 2852 2853 2854 2855 2855 2856 2857 2857 2858 2859 2860 2862 2863 2864 2865 2866 2867 2868 2869 2871 2872 2874 2875 2877 2878 2880 2882 2883 2885 2886 2888 2889 2889 2890 2891 2892 2893 2894 2895 2896 2897 2899 2900 2901 2902 2903 2904 2906 2907 2908 2910 2911 2912 2912 2913 2915 2916 2917 2918 2919 2919 2921 2922 2922 2923 2924 2925 2926 2927 2928 2929 2930 2931 2932 2933 2933 2934 2935
2843 2843 2843 2844 2845 2846 2847 2848 2849 2850 2851 2851 2852 2852 2853 2854 2855 2856 2857 2858 2859 2860 2861 2862 2863 2864 2865 2866 2867 2869 2871 2873 2874 2876 2878 2879 2881 2882 2884 2885 2886 2887 2888 2889 2890 2891 2891 2892 2894 2896 2896 2897 2899 2900 2901 2902 2903 2905 2907 2907 2908 2909 2911 2912 2912 2914 2915 2916 2917 2917 2918 2919 2920 2921 2922 2923 2924 2925 2926 2927 2927 2928 2929 2930 2931 2932
2839 2839 2840 2840 2841 2842 2843 2844 2845 2846 2846 2847 2847 2848 2849 2851 2852 2853 2853 2854 2855 2856 2857 2858 2859 2860 2862 2862 2863 2865 2867 2869 2871 2872 2874 2875 2877 2879 2880 2882 2882 2883 2884 2886 2887 2887 2888 2890 2891 2892 2893 2894 2895 2897 2897 2898 2899 2901 2903 2904 2905 2906 2907 2908 2909 2911 2913 2913 2913 2914 2915 2916 2917 2918 2919 2920 2921 2922 2922 2923 2924 2925 2925 2927 2927 2928
2835 2836 2836 2837 2837 2838 2839 2840 2841 2842 2842 2843 2844 2845 2846 2847 2849 2850 2850 2851 2851 2852 2853 2854 2856 2857 2858 2858 2859 2861 2863 2865 2867 2869 2870 2872 2873 2875 2877 2878 2879 2880 2881 2882 2883 2884 2885 2887 2888 2888 2889 2890 2892 2893 2894 2894 2896 2898 2899 2900 2902 2902 2903 2904 2906 2908 2910 2910 2910 2911 2912 2913 2914 2915 2916 2916 2917 2917 2918 2919 2920 2921 2922 2923 2924 2925
2832 2832 2833 2833 2834 2834 2835 2836 2837 2838 2839 2840 2841 2842 2842 2843 2845 2846 2847 2847 2848 2849 2849 2850 2852 2853 2854 2854 2855 2857 2860 2862 2863 2865 2866 2867 2869 2871 2872 2874 2875 2876 2878 2879 2880 2881 2882 2883 2884 2885 2886 2887 2889 2889 2890 2891 2893 2895 2896 2897 2898 2899 2900 2901 2903 2905 2906 2906 2907 2908 2909 2910 2911 2912 2912 2912 2913 2914 2915 2916 2917 2918 2919 2920 2921 2922
2828 2828 2829 2829 2830 2831 2831 2832 2833 2835 2836 2836 2837 2838 2839 2840 2841 2842 2842 2843 2845 2846 2846 2847 2848 2849 2850 2851 2852 2854 2857 2858 2859 2860 2862 2864 2866 2867 2869 2870 2871 2872 2874 2875 2877 2877 2878 2879 2880 2881 2882 2884 2885 2886 2887 2888 2890 2892 2893 2894 2895 2896 2897 2898 2899 2901 2902 2903 2904 2904 2905 2907 2907 2908 2908 2909 2910 2911 2912 2913 2914 2915 2916 2917 2917 2918
2824 2825 2825 2826 2827 2827 2827 2828 2829 2831 2832 2832 2833 2834 2836 2837 2838 2839 2839 2840 2841 2842 2843 2844 2844 2845 2846 2847 2849 2851 2853 2854 2855 2856 2858 2860 2862 2864 2865 2866 2867 2869 2870 2871 2872 2873 2875 2876 2877 2877 2879 2880 2882 2882 2883 2885 2887 2889 2889 2890 2892 2893 2894 2895 2896 2898 2899 2900 2901 2901 2902 2903 2904 2905 2905 2906 2907 2908 2909 2910 2911 2912 2913 2914 2915 2916
2821 2821 2822 2822 2823 2823 2824 2825 2826 2827 2828 2829 2830 2831 2832 2833 2834 2835 2835 2836 2837 2839 2841 2842 2842 2841 2842 2843 2845 2847 2850 2851 2852 2853 2854 2856 2858 2860 2862 2863 2864 2865 2866 2867 2868 2869 2870 2871 2872 2874 2875 2877 2878 2879 2881 2882 2884 2885 2886 2887 2889 2890 2891 2892 2893 2895 2896 2897 2897 2898 2899 2900 2901 2902 2902 2903 2904 2905 2906 2907 2908 2909 2910 2911 2912 2913
2817 2818 2818 2819 2819 2820 2820 2821 2822 2823 2824 2825 2826 2827 2828 2830 2831 2832 2832 2833 2834 2835 2837 2838 2839 2839 2839 2840 2842 2844 2846 2847 2848 2849 2851 2852 2854 2856 2858 2859 2861 2861 2862 2863 2864 2865 2866 2867 2868 2869 2871 2873 2875 2876 2877 2879 2880 2882 2883 2884 2886 2887 2888 2889 2890 2892 2893 2893 2894 2895 2896 2897 2897 2898 2899 2900 2901 2902 2903 2904 2906 2907 2907 2908 2909 2910
2813 2814 2815 2815 2816 2816 2817 2817 2818 2819 2820 2821 2822 2823 2824 2826 2827 2828 2829 2829 2830 2831 2832 2834 2835 2836 2835 2837 2838 2840 2842 2843 2845 2846 2847 2848 2850 2852 2854 2856 2857 2858 2859 2859 2860 2861 2862 2863 2864 2865 2867 2869 2872 2873 2874 2876 2877 2879 2880 2882 2882 2884 2885 2887 2887 2888 2890 2890 2891 2892 2893 2894 2894 2895 2896 2897 2898 2899 2900 2902 2903 2904 2905 2906 2907 2908